Time,TemperatureF,DewpointF,PressureIn,WindDirection,WindDirectionDegrees,WindSpeedMPH,WindSpeedGustMPH,Humidity,HourlyPrecipIn,Conditions,Clouds,dailyrainin,SoftwareType,DateUTC
2014-01-31 00:02:00,17.0,15.3,29.57,SSE,157,6.0,6.0,93,0.00,,,0.00,VWS V14.01,2014-01-31 05:02:00,
2014-01-31 00:07:00,17.0,15.3,29.55,SSE,157,6.0,6.0,93,0.00,,,0.00,VWS V14.01,2014-01-31 05:07:00,
2014-01-31 00:12:00,17.0,15.8,29.55,South,180,6.0,9.0,95,0.00,,,0.00,VWS V14.01,2014-01-31 05:12:00,
2014-01-31 00:17:00,17.0,15.8,29.55,South,180,8.0,8.0,95,0.00,,,0.00,VWS V14.01,2014-01-31 05:17:00,
2014-01-31 00:22:00,17.0,15.8,29.55,SSW,202,6.0,7.0,95,0.00,,,0.00,VWS V14.01,2014-01-31 05:22:00,
2014-01-31 00:27:00,18.0,16.6,29.54,SSW,202,10.0,10.0,94,0.00,,,0.00,VWS V14.01,2014-01-31 05:27:00,
2014-01-31 00:32:00,18.0,16.6,29.54,South,180,7.0,7.0,94,0.00,,,0.00,VWS V14.01,2014-01-31 05:32:00,
2014-01-31 00:37:00,18.0,16.8,29.53,SSW,202,10.0,10.0,95,0.00,,,0.00,VWS V14.01,2014-01-31 05:37:00,
2014-01-31 00:42:00,19.0,17.6,29.53,South,180,9.0,10.0,94,0.00,,,0.00,VWS V14.01,2014-01-31 05:42:00,
2014-01-31 00:47:00,19.0,17.6,29.53,South,180,9.0,9.0,94,0.00,,,0.00,VWS V14.01,2014-01-31 05:47:00,
2014-01-31 00:52:00,19.0,17.6,29.53,South,180,7.0,8.0,94,0.00,,,0.00,VWS V14.01,2014-01-31 05:52:00,
2014-01-31 00:57:00,19.0,17.8,29.53,South,180,10.0,13.0,95,0.00,,,0.00,VWS V14.01,2014-01-31 05:57:00,
2014-01-31 01:02:00,19.0,17.8,29.53,South,180,7.0,7.0,95,0.00,,,0.00,VWS V14.01,2014-01-31 06:02:00,
2014-01-31 01:07:00,19.0,17.8,29.52,South,180,9.0,9.0,95,0.00,,,0.00,VWS V14.01,2014-01-31 06:07:00,
2014-01-31 01:12:00,19.0,17.8,29.52,South,180,6.0,10.0,95,0.00,,,0.00,VWS V14.01,2014-01-31 06:12:00,
2014-01-31 01:17:00,20.0,18.5,29.51,SSW,202,10.0,10.0,94,0.00,,,0.00,VWS V14.01,2014-01-31 06:17:00,
2014-01-31 01:22:00,20.0,18.8,29.51,South,180,10.0,10.0,95,0.00,,,0.00,VWS V14.01,2014-01-31 06:22:00,
2014-01-31 01:27:00,20.0,18.8,29.51,South,180,8.0,11.0,95,0.00,,,0.00,VWS V14.01,2014-01-31 06:27:00,
2014-01-31 01:32:00,20.0,18.8,29.51,SSW,202,11.0,15.0,95,0.00,,,0.00,VWS V14.01,2014-01-31 06:32:00,
2014-01-31 01:37:00,20.0,18.8,29.51,SSW,202,7.0,9.0,95,0.00,,,0.00,VWS V14.01,2014-01-31 06:37:00,
2014-01-31 01:42:00,20.0,18.8,29.51,SSW,202,5.0,10.0,95,0.00,,,0.00,VWS V14.01,2014-01-31 06:42:00,
2014-01-31 01:47:00,20.0,18.8,29.51,SSE,157,9.0,10.0,95,0.00,,,0.00,VWS V14.01,2014-01-31 06:47:00,
2014-01-31 01:52:00,20.0,18.8,29.51,South,180,7.0,9.0,95,0.00,,,0.00,VWS V14.01,2014-01-31 06:52:00,
2014-01-31 01:57:00,20.0,18.8,29.49,SE,135,10.0,11.0,95,0.00,,,0.00,VWS V14.01,2014-01-31 06:57:00,
2014-01-31 02:02:00,20.0,18.8,29.49,South,180,6.0,10.0,95,0.00,,,0.00,VWS V14.01,2014-01-31 07:02:00,
2014-01-31 02:07:00,20.0,19.0,29.50,SSE,157,7.0,10.0,96,0.00,,,0.00,VWS V14.01,2014-01-31 07:07:00,
2014-01-31 02:12:00,20.0,19.0,29.50,SSW,202,1.0,8.0,96,0.00,,,0.00,VWS V14.01,2014-01-31 07:12:00,
2014-01-31 02:17:00,20.0,19.0,29.50,SE,135,2.0,9.0,96,0.00,,,0.00,VWS V14.01,2014-01-31 07:17:00,
2014-01-31 02:22:00,20.0,19.0,29.50,South,180,9.0,11.0,96,0.00,,,0.00,VWS V14.01,2014-01-31 07:22:00,
2014-01-31 02:27:00,20.0,19.0,29.49,SSE,157,1.0,9.0,96,0.00,,,0.00,VWS V14.01,2014-01-31 07:27:00,
2014-01-31 02:32:00,20.0,19.0,29.49,SSE,157,9.0,13.0,96,0.00,,,0.00,VWS V14.01,2014-01-31 07:32:00,
2014-01-31 02:37:00,20.0,19.0,29.48,SSW,202,6.0,9.0,96,0.00,,,0.00,VWS V14.01,2014-01-31 07:37:00,
2014-01-31 02:42:00,20.0,19.3,29.48,SE,135,3.0,8.0,97,0.00,,,0.00,VWS V14.01,2014-01-31 07:42:00,
2014-01-31 02:47:00,20.0,19.3,29.48,SE,135,6.0,9.0,97,0.00,,,0.00,VWS V14.01,2014-01-31 07:47:00,
2014-01-31 02:52:00,20.0,19.5,29.48,SSE,157,10.0,10.0,98,0.00,,,0.00,VWS V14.01,2014-01-31 07:52:00,
2014-01-31 02:57:00,20.0,19.5,29.47,SSE,157,9.0,11.0,98,0.00,,,0.00,VWS V14.01,2014-01-31 07:57:00,
2014-01-31 03:02:00,21.0,20.5,29.47,SW,225,8.0,9.0,98,0.00,,,0.00,VWS V14.01,2014-01-31 08:02:00,
2014-01-31 03:07:00,21.0,20.5,29.45,SE,135,11.0,11.0,98,0.00,,,0.00,VWS V14.01,2014-01-31 08:07:00,
2014-01-31 03:12:00,21.0,20.5,29.45,SSE,157,7.0,9.0,98,0.00,,,0.00,VWS V14.01,2014-01-31 08:12:00,
2014-01-31 03:17:00,21.0,20.5,29.45,South,180,6.0,10.0,98,0.00,,,0.00,VWS V14.01,2014-01-31 08:17:00,
2014-01-31 03:22:00,21.0,20.5,29.45,SSE,157,7.0,9.0,98,0.00,,,0.00,VWS V14.01,2014-01-31 08:22:00,
2014-01-31 03:27:00,21.0,20.5,29.45,SE,135,9.0,11.0,98,0.00,,,0.00,VWS V14.01,2014-01-31 08:27:00,
2014-01-31 03:32:00,21.0,20.5,29.45,SE,135,7.0,8.0,98,0.00,,,0.00,VWS V14.01,2014-01-31 08:32:00,
2014-01-31 03:37:00,22.0,21.3,29.43,SE,135,6.0,9.0,97,0.00,,,0.00,VWS V14.01,2014-01-31 08:37:00,
2014-01-31 03:42:00,22.0,21.3,29.43,South,180,9.0,10.0,97,0.00,,,0.00,VWS V14.01,2014-01-31 08:42:00,
2014-01-31 03:47:00,22.0,21.3,29.44,South,180,6.0,9.0,97,0.00,,,0.00,VWS V14.01,2014-01-31 08:47:00,
2014-01-31 03:52:00,22.0,21.3,29.44,SE,135,9.0,12.0,97,0.00,,,0.00,VWS V14.01,2014-01-31 08:52:00,
2014-01-31 03:57:00,22.0,21.3,29.45,SSE,157,9.0,11.0,97,0.00,,,0.00,VWS V14.01,2014-01-31 08:57:00,
2014-01-31 04:02:00,22.0,21.3,29.45,SSE,157,4.0,9.0,97,0.00,,,0.00,VWS V14.01,2014-01-31 09:02:00,
2014-01-31 04:07:00,22.0,21.3,29.44,SSE,157,5.0,6.0,97,0.00,,,0.00,VWS V14.01,2014-01-31 09:07:00,
2014-01-31 04:12:00,22.0,21.3,29.44,SSE,157,6.0,6.0,97,0.00,,,0.00,VWS V14.01,2014-01-31 09:12:00,
2014-01-31 04:17:00,23.0,22.5,29.42,SE,135,9.0,10.0,98,0.00,,,0.00,VWS V14.01,2014-01-31 09:17:00,
2014-01-31 04:22:00,23.0,22.5,29.42,SE,135,6.0,6.0,98,0.00,,,0.00,VWS V14.01,2014-01-31 09:22:00,
2014-01-31 04:26:00,23.0,22.8,29.43,SSW,202,4.0,5.0,99,0.00,,,0.00,VWS V14.01,2014-01-31 09:26:00,
2014-01-31 04:31:00,23.0,23.0,29.43,South,180,6.0,8.0,100,0.00,,,0.00,VWS V14.01,2014-01-31 09:31:00,
2014-01-31 04:36:00,23.0,23.0,29.42,SSE,157,6.0,7.0,100,0.00,,,0.00,VWS V14.01,2014-01-31 09:36:00,
2014-01-31 04:41:00,24.0,23.5,29.42,SSW,202,9.0,12.0,98,0.00,,,0.00,VWS V14.01,2014-01-31 09:41:00,
2014-01-31 04:46:00,25.0,24.8,29.41,SSW,202,7.0,12.0,99,0.00,,,0.00,VWS V14.01,2014-01-31 09:46:00,
2014-01-31 04:51:00,25.0,24.5,29.41,SSW,202,7.0,9.0,98,0.00,,,0.00,VWS V14.01,2014-01-31 09:51:00,
2014-01-31 04:56:00,26.0,25.5,29.41,SSW,202,12.0,15.0,98,0.00,,,0.00,VWS V14.01,2014-01-31 09:56:00,
2014-01-31 05:01:00,26.0,25.0,29.41,SW,225,12.0,19.0,96,0.00,,,0.00,VWS V14.01,2014-01-31 10:01:00,
2014-01-31 05:06:00,27.0,25.0,29.39,SSW,202,13.0,13.0,92,0.00,,,0.00,VWS V14.01,2014-01-31 10:06:00,
2014-01-31 05:11:00,28.0,25.7,29.39,WSW,247,6.0,9.0,91,0.00,,,0.00,VWS V14.01,2014-01-31 10:11:00,
2014-01-31 05:16:00,28.0,25.2,29.39,SSE,157,10.0,13.0,89,0.00,,,0.00,VWS V14.01,2014-01-31 10:16:00,
2014-01-31 05:21:00,28.0,24.6,29.39,South,180,7.0,12.0,87,0.00,,,0.00,VWS V14.01,2014-01-31 10:21:00,
2014-01-31 05:26:00,28.0,24.1,29.39,WSW,247,12.0,13.0,85,0.00,,,0.00,VWS V14.01,2014-01-31 10:26:00,
2014-01-31 05:31:00,28.0,24.1,29.39,South,180,10.0,13.0,85,0.00,,,0.00,VWS V14.01,2014-01-31 10:31:00,
2014-01-31 05:36:00,28.0,23.2,29.39,South,180,16.0,20.0,82,0.00,,,0.00,VWS V14.01,2014-01-31 10:36:00,
2014-01-31 05:41:00,28.0,22.3,29.39,SSW,202,15.0,15.0,79,0.00,,,0.00,VWS V14.01,2014-01-31 10:41:00,
2014-01-31 05:46:00,28.0,22.0,29.39,SW,225,6.0,12.0,78,0.00,,,0.00,VWS V14.01,2014-01-31 10:46:00,
2014-01-31 05:51:00,28.0,20.8,29.39,SSW,202,15.0,19.0,74,0.00,,,0.00,VWS V14.01,2014-01-31 10:51:00,
2014-01-31 05:56:00,27.0,19.8,29.39,SSE,157,6.0,7.0,74,0.00,,,0.00,VWS V14.01,2014-01-31 10:56:00,
2014-01-31 06:01:00,27.0,19.2,29.39,SSW,202,10.0,10.0,72,0.00,,,0.00,VWS V14.01,2014-01-31 11:01:00,
2014-01-31 06:06:00,27.0,18.2,29.39,South,180,9.0,9.0,69,0.00,,,0.00,VWS V14.01,2014-01-31 11:06:00,
2014-01-31 06:11:00,27.0,17.2,29.39,SSW,202,9.0,12.0,66,0.00,,,0.00,VWS V14.01,2014-01-31 11:11:00,
2014-01-31 06:16:00,27.0,15.7,29.38,South,180,12.0,15.0,62,0.00,,,0.00,VWS V14.01,2014-01-31 11:16:00,
2014-01-31 06:21:00,28.0,15.5,29.38,SSW,202,16.0,18.0,59,0.00,,,0.00,VWS V14.01,2014-01-31 11:21:00,
2014-01-31 06:26:00,28.0,14.8,29.37,South,180,12.0,12.0,57,0.00,,,0.00,VWS V14.01,2014-01-31 11:26:00,
2014-01-31 06:31:00,27.0,13.0,29.37,SSW,202,12.0,12.0,55,0.00,,,0.00,VWS V14.01,2014-01-31 11:31:00,
2014-01-31 06:36:00,28.0,13.1,29.38,SSW,202,13.0,15.0,53,0.00,,,0.00,VWS V14.01,2014-01-31 11:36:00,
2014-01-31 06:41:00,27.0,11.7,29.38,SSW,202,10.0,10.0,52,0.00,,,0.00,VWS V14.01,2014-01-31 11:41:00,
2014-01-31 06:46:00,28.0,10.9,29.39,South,180,12.0,12.0,48,0.00,,,0.00,VWS V14.01,2014-01-31 11:46:00,
2014-01-31 06:51:00,27.0,9.9,29.39,South,180,4.0,7.0,48,0.00,,,0.00,VWS V14.01,2014-01-31 11:51:00,
2014-01-31 06:56:00,27.0,9.9,29.41,South,180,9.0,9.0,48,0.00,,,0.00,VWS V14.01,2014-01-31 11:56:00,
2014-01-31 07:01:00,27.0,9.5,29.41,SW,225,6.0,10.0,47,0.00,,,0.00,VWS V14.01,2014-01-31 12:01:00,
2014-01-31 07:06:00,27.0,9.5,29.41,SSW,202,6.0,9.0,47,0.00,,,0.00,VWS V14.01,2014-01-31 12:06:00,
2014-01-31 07:11:00,27.0,9.0,29.41,SSE,157,7.0,8.0,46,0.00,,,0.00,VWS V14.01,2014-01-31 12:11:00,
2014-01-31 07:16:00,27.0,7.5,29.40,SSW,202,12.0,12.0,43,0.00,,,0.00,VWS V14.01,2014-01-31 12:16:00,
2014-01-31 07:21:00,27.0,7.5,29.40,SW,225,9.0,13.0,43,0.00,,,0.00,VWS V14.01,2014-01-31 12:21:00,
2014-01-31 07:26:00,27.0,7.5,29.41,South,180,4.0,10.0,43,0.00,,,0.00,VWS V14.01,2014-01-31 12:26:00,
2014-01-31 07:31:00,27.0,7.0,29.41,South,180,9.0,10.0,42,0.00,,,0.00,VWS V14.01,2014-01-31 12:31:00,
2014-01-31 07:36:00,27.0,5.9,29.41,SSE,157,5.0,10.0,40,0.00,,,0.00,VWS V14.01,2014-01-31 12:36:00,
2014-01-31 07:41:00,27.0,5.9,29.41,South,180,5.0,13.0,40,0.00,,,0.00,VWS V14.01,2014-01-31 12:41:00,
2014-01-31 07:46:00,27.0,7.0,29.42,WSW,247,4.0,12.0,42,0.00,,,0.00,VWS V14.01,2014-01-31 12:46:00,
2014-01-31 07:51:00,27.0,6.4,29.42,SSW,202,10.0,13.0,41,0.00,,,0.00,VWS V14.01,2014-01-31 12:51:00,
2014-01-31 07:56:00,27.0,5.9,29.42,SE,135,6.0,14.0,40,0.00,,,0.00,VWS V14.01,2014-01-31 12:56:00,
2014-01-31 08:01:00,27.0,6.4,29.42,South,180,9.0,9.0,41,0.00,,,0.00,VWS V14.01,2014-01-31 13:01:00,
2014-01-31 08:06:00,27.0,6.4,29.42,SSW,202,7.0,10.0,41,0.00,,,0.00,VWS V14.01,2014-01-31 13:06:00,
2014-01-31 08:11:00,27.0,7.0,29.42,South,180,7.0,7.0,42,0.00,,,0.00,VWS V14.01,2014-01-31 13:11:00,
2014-01-31 08:16:00,27.0,6.4,29.42,South,180,9.0,10.0,41,0.00,,,0.00,VWS V14.01,2014-01-31 13:16:00,
2014-01-31 08:21:00,27.0,7.0,29.42,South,180,7.0,8.0,42,0.00,,,0.00,VWS V14.01,2014-01-31 13:21:00,
2014-01-31 08:26:00,27.0,7.0,29.41,SSW,202,7.0,9.0,42,0.00,,,0.00,VWS V14.01,2014-01-31 13:26:00,
2014-01-31 08:31:00,27.0,7.0,29.41,SSW,202,10.0,11.0,42,0.00,,,0.00,VWS V14.01,2014-01-31 13:31:00,
2014-01-31 08:36:00,27.0,7.0,29.41,South,180,6.0,9.0,42,0.00,,,0.00,VWS V14.01,2014-01-31 13:36:00,
2014-01-31 08:41:00,27.0,7.0,29.41,SW,225,4.0,9.0,42,0.00,,,0.00,VWS V14.01,2014-01-31 13:41:00,
2014-01-31 08:46:00,27.0,7.0,29.42,SSW,202,5.0,13.0,42,0.00,,,0.00,VWS V14.01,2014-01-31 13:46:00,
2014-01-31 08:51:00,27.0,7.5,29.42,South,180,4.0,9.0,43,0.00,,,0.00,VWS V14.01,2014-01-31 13:51:00,
2014-01-31 08:56:00,28.0,7.9,29.41,SSW,202,8.0,11.0,42,0.00,,,0.00,VWS V14.01,2014-01-31 13:56:00,
2014-01-31 09:01:00,28.0,7.9,29.41,South,180,7.0,9.0,42,0.00,,,0.00,VWS V14.01,2014-01-31 14:01:00,
2014-01-31 09:06:00,28.0,7.9,29.41,South,180,5.0,5.0,42,0.00,,,0.00,VWS V14.01,2014-01-31 14:06:00,
2014-01-31 09:11:00,28.0,7.9,29.41,SW,225,6.0,14.0,42,0.00,,,0.00,VWS V14.01,2014-01-31 14:11:00,
2014-01-31 09:16:00,28.0,7.4,29.42,SSW,202,8.0,11.0,41,0.00,,,0.00,VWS V14.01,2014-01-31 14:16:00,
2014-01-31 09:21:00,28.0,7.9,29.42,SSW,202,7.0,8.0,42,0.00,,,0.00,VWS V14.01,2014-01-31 14:21:00,
2014-01-31 09:26:00,29.0,8.3,29.42,SSW,202,8.0,12.0,41,0.00,,,0.00,VWS V14.01,2014-01-31 14:26:00,
2014-01-31 09:31:00,29.0,9.3,29.42,SW,225,5.0,6.0,43,0.00,,,0.00,VWS V14.01,2014-01-31 14:31:00,
2014-01-31 09:36:00,29.0,8.8,29.43,South,180,7.0,7.0,42,0.00,,,0.00,VWS V14.01,2014-01-31 14:36:00,
2014-01-31 09:41:00,29.0,8.8,29.43,WSW,247,5.0,10.0,42,0.00,,,0.00,VWS V14.01,2014-01-31 14:41:00,
2014-01-31 09:46:00,29.0,8.8,29.43,SSW,202,6.0,7.0,42,0.00,,,0.00,VWS V14.01,2014-01-31 14:46:00,
2014-01-31 09:51:00,29.0,8.8,29.43,SSW,202,10.0,11.0,42,0.00,,,0.00,VWS V14.01,2014-01-31 14:51:00,
2014-01-31 09:56:00,29.0,8.8,29.43,SSW,202,8.0,10.0,42,0.00,,,0.00,VWS V14.01,2014-01-31 14:56:00,
2014-01-31 10:01:00,29.0,9.8,29.43,South,180,8.0,9.0,44,0.00,,,0.00,VWS V14.01,2014-01-31 15:01:00,
2014-01-31 10:05:00,29.0,8.8,29.44,SSW,202,9.0,9.0,42,0.00,,,0.00,VWS V14.01,2014-01-31 15:05:00,
2014-01-31 10:10:00,30.0,8.6,29.44,West,270,6.0,11.0,40,0.00,,,0.00,VWS V14.01,2014-01-31 15:10:00,
2014-01-31 10:15:00,30.0,9.2,29.43,SE,135,3.0,9.0,41,0.00,,,0.00,VWS V14.01,2014-01-31 15:15:00,
2014-01-31 10:20:00,30.0,8.6,29.43,South,180,9.0,10.0,40,0.00,,,0.00,VWS V14.01,2014-01-31 15:20:00,
2014-01-31 10:25:00,30.0,8.1,29.43,South,180,7.0,11.0,39,0.00,,,0.00,VWS V14.01,2014-01-31 15:25:00,
2014-01-31 10:30:00,30.0,8.6,29.43,SSW,202,10.0,12.0,40,0.00,,,0.00,VWS V14.01,2014-01-31 15:30:00,
2014-01-31 10:35:00,31.0,9.5,29.43,SW,225,5.0,10.0,40,0.00,,,0.00,VWS V14.01,2014-01-31 15:35:00,
2014-01-31 10:40:00,31.0,9.0,29.43,SE,135,6.0,10.0,39,0.00,,,0.00,VWS V14.01,2014-01-31 15:40:00,
2014-01-31 10:45:00,32.0,9.3,29.41,SSW,202,2.0,7.0,38,0.00,,,0.00,VWS V14.01,2014-01-31 15:45:00,
2014-01-31 10:50:00,32.0,9.3,29.41,SSW,202,6.0,9.0,38,0.00,,,0.00,VWS V14.01,2014-01-31 15:50:00,
2014-01-31 10:55:00,32.0,9.9,29.42,SW,225,6.0,8.0,39,0.00,,,0.00,VWS V14.01,2014-01-31 15:55:00,
2014-01-31 11:00:00,31.0,9.0,29.42,South,180,6.0,7.0,39,0.00,,,0.00,VWS V14.01,2014-01-31 16:00:00,
2014-01-31 11:05:00,32.0,9.9,29.41,SSW,202,5.0,7.0,39,0.00,,,0.00,VWS V14.01,2014-01-31 16:05:00,
2014-01-31 11:10:00,32.0,11.5,29.41,South,180,3.0,4.0,42,0.00,,,0.00,VWS V14.01,2014-01-31 16:10:00,
2014-01-31 11:15:00,32.0,9.3,29.41,SSW,202,12.0,12.0,38,0.00,,,0.00,VWS V14.01,2014-01-31 16:15:00,
2014-01-31 11:20:00,32.0,9.9,29.41,South,180,7.0,8.0,39,0.00,,,0.00,VWS V14.01,2014-01-31 16:20:00,
2014-01-31 11:25:00,32.0,10.4,29.41,SSW,202,7.0,9.0,40,0.00,,,0.00,VWS V14.01,2014-01-31 16:25:00,
2014-01-31 11:30:00,33.0,10.2,29.41,South,180,7.0,8.0,38,0.00,,,0.00,VWS V14.01,2014-01-31 16:30:00,
2014-01-31 11:35:00,34.0,10.5,29.40,SW,225,6.0,10.0,37,0.00,,,0.00,VWS V14.01,2014-01-31 16:35:00,
2014-01-31 11:40:00,34.0,11.7,29.40,South,180,3.0,3.0,39,0.00,,,0.00,VWS V14.01,2014-01-31 16:40:00,
2014-01-31 11:45:00,36.0,12.3,29.38,South,180,3.0,4.0,37,0.00,,,0.00,VWS V14.01,2014-01-31 16:45:00,
2014-01-31 11:50:00,36.0,12.3,29.38,SW,225,1.0,6.0,37,0.00,,,0.00,VWS V14.01,2014-01-31 16:50:00,
2014-01-31 11:55:00,36.0,12.3,29.39,SW,225,3.0,6.0,37,0.00,,,0.00,VWS V14.01,2014-01-31 16:55:00,
2014-01-31 12:00:00,36.0,11.6,29.39,West,270,11.0,11.0,36,0.00,,,0.00,VWS V14.01,2014-01-31 17:00:00,
2014-01-31 12:05:00,36.0,11.6,29.39,WNW,292,6.0,8.0,36,0.00,,,0.00,VWS V14.01,2014-01-31 17:05:00,
2014-01-31 12:10:00,37.0,12.5,29.39,SSW,202,7.0,8.0,36,0.00,,,0.00,VWS V14.01,2014-01-31 17:10:00,
2014-01-31 12:15:00,37.0,11.9,29.38,South,180,13.0,13.0,35,0.00,,,0.00,VWS V14.01,2014-01-31 17:15:00,
2014-01-31 12:20:00,36.0,12.3,29.38,SSW,202,6.0,7.0,37,0.00,,,0.00,VWS V14.01,2014-01-31 17:20:00,
2014-01-31 12:25:00,36.0,12.9,29.37,WNW,292,6.0,6.0,38,0.00,,,0.00,VWS V14.01,2014-01-31 17:25:00,
2014-01-31 12:30:00,36.0,12.9,29.37,SW,225,6.0,7.0,38,0.00,,,0.00,VWS V14.01,2014-01-31 17:30:00,
2014-01-31 12:35:00,37.0,14.4,29.36,WSW,247,5.0,6.0,39,0.00,,,0.00,VWS V14.01,2014-01-31 17:35:00,
2014-01-31 12:40:00,38.0,14.1,29.36,WSW,247,6.0,6.0,37,0.00,,,0.00,VWS V14.01,2014-01-31 17:40:00,
2014-01-31 12:45:00,38.0,14.1,29.35,SE,135,7.0,10.0,37,0.00,,,0.00,VWS V14.01,2014-01-31 17:45:00,
2014-01-31 12:50:00,38.0,14.1,29.35,South,180,6.0,6.0,37,0.00,,,0.00,VWS V14.01,2014-01-31 17:50:00,
2014-01-31 12:55:00,38.0,14.1,29.35,South,180,8.0,11.0,37,0.00,,,0.00,VWS V14.01,2014-01-31 17:55:00,
2014-01-31 13:00:00,38.0,14.1,29.36,South,180,3.0,6.0,37,0.00,,,0.00,VWS V14.01,2014-01-31 18:00:00,
2014-01-31 13:05:00,38.0,13.4,29.36,WNW,292,8.0,10.0,36,0.00,,,0.00,VWS V14.01,2014-01-31 18:05:00,
2014-01-31 13:10:00,39.0,14.3,29.36,SW,225,7.0,10.0,36,0.00,,,0.00,VWS V14.01,2014-01-31 18:10:00,
2014-01-31 13:15:00,38.0,13.4,29.36,SW,225,9.0,10.0,36,0.00,,,0.00,VWS V14.01,2014-01-31 18:15:00,
2014-01-31 13:20:00,38.0,14.1,29.35,West,270,3.0,11.0,37,0.00,,,0.00,VWS V14.01,2014-01-31 18:20:00,
2014-01-31 13:25:00,38.0,14.7,29.35,West,270,7.0,7.0,38,0.00,,,0.00,VWS V14.01,2014-01-31 18:25:00,
2014-01-31 13:30:00,39.0,14.9,29.34,SSW,202,13.0,13.0,37,0.00,,,0.00,VWS V14.01,2014-01-31 18:30:00,
2014-01-31 13:35:00,39.0,14.3,29.34,WSW,247,6.0,9.0,36,0.00,,,0.00,VWS V14.01,2014-01-31 18:35:00,
2014-01-31 13:40:00,39.0,14.9,29.35,West,270,2.0,9.0,37,0.00,,,0.00,VWS V14.01,2014-01-31 18:40:00,
2014-01-31 13:45:00,39.0,14.3,29.35,SSW,202,7.0,9.0,36,0.00,,,0.00,VWS V14.01,2014-01-31 18:45:00,
2014-01-31 13:50:00,39.0,14.3,29.34,South,180,12.0,12.0,36,0.00,,,0.00,VWS V14.01,2014-01-31 18:50:00,
2014-01-31 13:55:00,39.0,14.9,29.34,NW,315,2.0,9.0,37,0.00,,,0.00,VWS V14.01,2014-01-31 18:55:00,
2014-01-31 14:00:00,40.0,15.9,29.35,SW,225,6.0,9.0,37,0.00,,,0.00,VWS V14.01,2014-01-31 19:00:00,
2014-01-31 14:05:00,39.0,16.2,29.35,SW,225,10.0,10.0,39,0.00,,,0.00,VWS V14.01,2014-01-31 19:05:00,
2014-01-31 14:10:00,39.0,14.9,29.36,SSW,202,5.0,12.0,37,0.00,,,0.00,VWS V14.01,2014-01-31 19:10:00,
2014-01-31 14:15:00,39.0,16.2,29.36,SW,225,6.0,9.0,39,0.00,,,0.00,VWS V14.01,2014-01-31 19:15:00,
2014-01-31 14:20:00,39.0,14.9,29.37,SSW,202,9.0,13.0,37,0.00,,,0.00,VWS V14.01,2014-01-31 19:20:00,
2014-01-31 14:25:00,39.0,15.6,29.37,SW,225,4.0,7.0,38,0.00,,,0.00,VWS V14.01,2014-01-31 19:25:00,
2014-01-31 14:30:00,39.0,15.6,29.37,West,270,6.0,10.0,38,0.00,,,0.00,VWS V14.01,2014-01-31 19:30:00,
2014-01-31 14:35:00,39.0,16.2,29.37,South,180,3.0,7.0,39,0.00,,,0.00,VWS V14.01,2014-01-31 19:35:00,
2014-01-31 14:40:00,39.0,16.2,29.38,South,180,10.0,10.0,39,0.00,,,0.00,VWS V14.01,2014-01-31 19:40:00,
2014-01-31 14:45:00,38.0,15.8,29.38,WSW,247,8.0,12.0,40,0.00,,,0.00,VWS V14.01,2014-01-31 19:45:00,
2014-01-31 14:50:00,38.0,15.8,29.38,South,180,6.0,15.0,40,0.00,,,0.00,VWS V14.01,2014-01-31 19:50:00,
2014-01-31 14:55:00,38.0,16.4,29.38,NW,315,8.0,13.0,41,0.00,,,0.00,VWS V14.01,2014-01-31 19:55:00,
2014-01-31 15:00:00,38.0,16.4,29.38,SSW,202,5.0,11.0,41,0.00,,,0.00,VWS V14.01,2014-01-31 20:00:00,
2014-01-31 15:05:00,38.0,17.0,29.38,West,270,5.0,8.0,42,0.00,,,0.00,VWS V14.01,2014-01-31 20:05:00,
2014-01-31 15:10:00,38.0,16.4,29.38,SW,225,2.0,12.0,41,0.00,,,0.00,VWS V14.01,2014-01-31 20:10:00,
2014-01-31 15:15:00,37.0,15.5,29.38,WSW,247,6.0,10.0,41,0.00,,,0.00,VWS V14.01,2014-01-31 20:15:00,
2014-01-31 15:20:00,38.0,17.0,29.39,South,180,3.0,5.0,42,0.00,,,0.00,VWS V14.01,2014-01-31 20:20:00,
2014-01-31 15:25:00,38.0,16.4,29.39,West,270,4.0,6.0,41,0.00,,,0.00,VWS V14.01,2014-01-31 20:25:00,
2014-01-31 15:30:00,38.0,16.4,29.38,SSW,202,6.0,6.0,41,0.00,,,0.00,VWS V14.01,2014-01-31 20:30:00,
2014-01-31 15:35:00,39.0,17.9,29.38,SSW,202,4.0,4.0,42,0.00,,,0.00,VWS V14.01,2014-01-31 20:35:00,
2014-01-31 15:40:00,39.0,17.3,29.38,West,270,6.0,8.0,41,0.00,,,0.00,VWS V14.01,2014-01-31 20:40:00,
2014-01-31 15:45:00,39.0,17.3,29.38,SW,225,9.0,9.0,41,0.00,,,0.00,VWS V14.01,2014-01-31 20:45:00,
2014-01-31 15:50:00,38.0,17.0,29.38,West,270,3.0,4.0,42,0.00,,,0.00,VWS V14.01,2014-01-31 20:50:00,
2014-01-31 15:55:00,38.0,17.0,29.38,SW,225,4.0,7.0,42,0.00,,,0.00,VWS V14.01,2014-01-31 20:55:00,
2014-01-31 16:00:00,38.0,18.0,29.38,WSW,247,5.0,5.0,44,0.00,,,0.00,VWS V14.01,2014-01-31 21:00:00,
2014-01-31 16:05:00,38.0,18.0,29.38,SSW,202,3.0,7.0,44,0.00,,,0.00,VWS V14.01,2014-01-31 21:05:00,
2014-01-31 16:09:00,37.0,17.1,29.38,South,180,2.0,9.0,44,0.00,,,0.00,VWS V14.01,2014-01-31 21:09:00,
2014-01-31 16:14:00,37.0,17.6,29.38,SSW,202,6.0,7.0,45,0.00,,,0.00,VWS V14.01,2014-01-31 21:14:00,
2014-01-31 16:19:00,37.0,18.2,29.39,SW,225,6.0,6.0,46,0.00,,,0.00,VWS V14.01,2014-01-31 21:19:00,
2014-01-31 16:24:00,37.0,18.2,29.39,SW,225,5.0,9.0,46,0.00,,,0.00,VWS V14.01,2014-01-31 21:24:00,
2014-01-31 16:29:00,37.0,18.7,29.39,SW,225,6.0,8.0,47,0.00,,,0.00,VWS V14.01,2014-01-31 21:29:00,
2014-01-31 16:34:00,37.0,18.7,29.39,SSW,202,6.0,9.0,47,0.00,,,0.00,VWS V14.01,2014-01-31 21:34:00,
2014-01-31 16:39:00,37.0,18.7,29.38,SSW,202,7.0,7.0,47,0.00,,,0.00,VWS V14.01,2014-01-31 21:39:00,
2014-01-31 16:44:00,37.0,18.7,29.38,SW,225,7.0,7.0,47,0.00,,,0.00,VWS V14.01,2014-01-31 21:44:00,
2014-01-31 16:49:00,37.0,18.7,29.37,SSW,202,6.0,6.0,47,0.00,,,0.00,VWS V14.01,2014-01-31 21:49:00,
2014-01-31 16:54:00,36.0,17.7,29.37,South,180,6.0,6.0,47,0.00,,,0.00,VWS V14.01,2014-01-31 21:54:00,
2014-01-31 16:59:00,36.0,18.2,29.38,SW,225,2.0,3.0,48,0.00,,,0.00,VWS V14.01,2014-01-31 21:59:00,
2014-01-31 17:04:00,36.0,18.2,29.38,SW,225,1.0,1.0,48,0.00,,,0.00,VWS V14.01,2014-01-31 22:04:00,
2014-01-31 17:09:00,35.0,18.7,29.39,SSW,202,3.0,4.0,51,0.00,,,0.00,VWS V14.01,2014-01-31 22:09:00,
2014-01-31 17:14:00,35.0,18.7,29.39,SW,225,1.0,3.0,51,0.00,,,0.00,VWS V14.01,2014-01-31 22:14:00,
2014-01-31 17:19:00,35.0,20.0,29.41,SW,225,3.0,3.0,54,0.00,,,0.00,VWS V14.01,2014-01-31 22:19:00,
2014-01-31 17:24:00,35.0,20.0,29.41,South,180,6.0,6.0,54,0.00,,,0.00,VWS V14.01,2014-01-31 22:24:00,
2014-01-31 17:29:00,35.0,20.0,29.41,SSW,202,5.0,6.0,54,0.00,,,0.00,VWS V14.01,2014-01-31 22:29:00,
2014-01-31 17:34:00,35.0,20.0,29.41,SW,225,4.0,5.0,54,0.00,,,0.00,VWS V14.01,2014-01-31 22:34:00,
2014-01-31 17:39:00,35.0,19.6,29.41,WSW,247,7.0,7.0,53,0.00,,,0.00,VWS V14.01,2014-01-31 22:39:00,
2014-01-31 17:44:00,36.0,21.0,29.41,SSW,202,2.0,4.0,54,0.00,,,0.00,VWS V14.01,2014-01-31 22:44:00,
2014-01-31 17:49:00,36.0,20.5,29.42,SW,225,6.0,7.0,53,0.00,,,0.00,VWS V14.01,2014-01-31 22:49:00,
2014-01-31 17:54:00,36.0,20.1,29.42,South,180,3.0,4.0,52,0.00,,,0.00,VWS V14.01,2014-01-31 22:54:00,
2014-01-31 17:59:00,36.0,21.0,29.42,SW,225,2.0,3.0,54,0.00,,,0.00,VWS V14.01,2014-01-31 22:59:00,
2014-01-31 18:04:00,36.0,21.0,29.42,SW,225,2.0,2.0,54,0.00,,,0.00,VWS V14.01,2014-01-31 23:04:00,
2014-01-31 18:09:00,35.0,20.0,29.43,SW,225,2.0,2.0,54,0.00,,,0.00,VWS V14.01,2014-01-31 23:09:00,
2014-01-31 18:14:00,35.0,20.0,29.43,WSW,247,5.0,6.0,54,0.00,,,0.00,VWS V14.01,2014-01-31 23:14:00,
2014-01-31 18:19:00,35.0,20.0,29.43,SW,225,1.0,3.0,54,0.00,,,0.00,VWS V14.01,2014-01-31 23:19:00,
2014-01-31 18:24:00,35.0,20.0,29.43,SSW,202,3.0,3.0,54,0.00,,,0.00,VWS V14.01,2014-01-31 23:24:00,
2014-01-31 18:29:00,35.0,20.5,29.44,SSW,202,4.0,5.0,55,0.00,,,0.00,VWS V14.01,2014-01-31 23:29:00,
2014-01-31 18:34:00,35.0,20.9,29.44,SW,225,7.0,7.0,56,0.00,,,0.00,VWS V14.01,2014-01-31 23:34:00,
2014-01-31 18:39:00,35.0,20.9,29.45,SW,225,3.0,3.0,56,0.00,,,0.00,VWS V14.01,2014-01-31 23:39:00,
2014-01-31 18:44:00,35.0,20.9,29.45,SSW,202,5.0,7.0,56,0.00,,,0.00,VWS V14.01,2014-01-31 23:44:00,
2014-01-31 18:49:00,34.0,20.8,29.45,SW,225,4.0,5.0,58,0.00,,,0.00,VWS V14.01,2014-01-31 23:49:00,
2014-01-31 18:54:00,34.0,20.8,29.45,SSE,157,2.0,4.0,58,0.00,,,0.00,VWS V14.01,2014-01-31 23:54:00,
2014-01-31 18:59:00,34.0,21.2,29.47,SSE,157,5.0,6.0,59,0.00,,,0.00,VWS V14.01,2014-01-31 23:59:00,
2014-01-31 19:04:00,34.0,21.6,29.47,South,180,1.0,4.0,60,0.00,,,0.00,VWS V14.01,2014-02-01 00:04:00,
2014-01-31 19:09:00,33.0,20.6,29.47,South,180,3.0,6.0,60,0.00,,,0.00,VWS V14.01,2014-02-01 00:09:00,
2014-01-31 19:14:00,33.0,21.0,29.47,SSE,157,3.0,4.0,61,0.00,,,0.00,VWS V14.01,2014-02-01 00:14:00,
2014-01-31 19:19:00,33.0,21.0,29.47,South,180,3.0,3.0,61,0.00,,,0.00,VWS V14.01,2014-02-01 00:19:00,
2014-01-31 19:24:00,33.0,22.5,29.47,South,180,1.0,2.0,65,0.00,,,0.00,VWS V14.01,2014-02-01 00:24:00,
2014-01-31 19:29:00,32.0,22.3,29.49,South,180,2.0,3.0,67,0.00,,,0.00,VWS V14.01,2014-02-01 00:29:00,
2014-01-31 19:34:00,31.0,21.0,29.49,SSE,157,4.0,5.0,66,0.00,,,0.00,VWS V14.01,2014-02-01 00:34:00,
2014-01-31 19:39:00,32.0,20.9,29.49,South,180,4.0,5.0,63,0.00,,,0.00,VWS V14.01,2014-02-01 00:39:00,
2014-01-31 19:44:00,32.0,20.5,29.49,SSW,202,3.0,5.0,62,0.00,,,0.00,VWS V14.01,2014-02-01 00:44:00,
2014-01-31 19:49:00,32.0,20.5,29.49,SSE,157,2.0,5.0,62,0.00,,,0.00,VWS V14.01,2014-02-01 00:49:00,
2014-01-31 19:54:00,32.0,20.9,29.49,South,180,2.0,3.0,63,0.00,,,0.00,VWS V14.01,2014-02-01 00:54:00,
2014-01-31 19:59:00,31.0,20.6,29.49,South,180,2.0,4.0,65,0.00,,,0.00,VWS V14.01,2014-02-01 00:59:00,
2014-01-31 20:04:00,31.0,20.6,29.49,South,180,2.0,5.0,65,0.00,,,0.00,VWS V14.01,2014-02-01 01:04:00,
2014-01-31 20:09:00,31.0,20.6,29.50,SE,135,1.0,3.0,65,0.00,,,0.00,VWS V14.01,2014-02-01 01:09:00,
2014-01-31 20:14:00,31.0,20.6,29.50,SE,135,2.0,2.0,65,0.00,,,0.00,VWS V14.01,2014-02-01 01:14:00,
2014-01-31 20:19:00,31.0,21.3,29.50,SE,135,0.0,1.0,67,0.00,,,0.00,VWS V14.01,2014-02-01 01:19:00,
2014-01-31 20:24:00,31.0,20.6,29.50,South,180,3.0,4.0,65,0.00,,,0.00,VWS V14.01,2014-02-01 01:24:00,
2014-01-31 20:29:00,31.0,20.6,29.51,SSW,202,2.0,3.0,65,0.00,,,0.00,VWS V14.01,2014-02-01 01:29:00,
2014-01-31 20:34:00,31.0,20.6,29.51,SSW,202,3.0,4.0,65,0.00,,,0.00,VWS V14.01,2014-02-01 01:34:00,
2014-01-31 20:39:00,31.0,20.3,29.50,SSW,202,3.0,3.0,64,0.00,,,0.00,VWS V14.01,2014-02-01 01:39:00,
2014-01-31 20:44:00,31.0,21.0,29.50,SW,225,2.0,3.0,66,0.00,,,0.00,VWS V14.01,2014-02-01 01:44:00,
2014-01-31 20:49:00,31.0,21.7,29.51,SW,225,4.0,4.0,68,0.00,,,0.00,VWS V14.01,2014-02-01 01:49:00,
2014-01-31 20:54:00,30.0,20.4,29.51,SW,225,3.0,3.0,67,0.00,,,0.00,VWS V14.01,2014-02-01 01:54:00,
2014-01-31 20:59:00,30.0,20.7,29.51,SW,225,3.0,3.0,68,0.00,,,0.00,VWS V14.01,2014-02-01 01:59:00,
2014-01-31 21:04:00,30.0,20.7,29.51,SW,225,3.0,3.0,68,0.00,,,0.00,VWS V14.01,2014-02-01 02:04:00,
2014-01-31 21:09:00,30.0,20.4,29.51,SW,225,0.0,0.0,67,0.00,,,0.00,VWS V14.01,2014-02-01 02:09:00,
2014-01-31 21:14:00,30.0,20.4,29.51,SW,225,1.0,2.0,67,0.00,,,0.00,VWS V14.01,2014-02-01 02:14:00,
2014-01-31 21:19:00,30.0,20.4,29.51,South,180,2.0,3.0,67,0.00,,,0.00,VWS V14.01,2014-02-01 02:19:00,
2014-01-31 21:24:00,30.0,20.0,29.51,SSE,157,2.0,3.0,66,0.00,,,0.00,VWS V14.01,2014-02-01 02:24:00,
2014-01-31 21:29:00,30.0,20.0,29.51,South,180,1.0,3.0,66,0.00,,,0.00,VWS V14.01,2014-02-01 02:29:00,
2014-01-31 21:34:00,30.0,21.4,29.51,South,180,2.0,3.0,70,0.00,,,0.00,VWS V14.01,2014-02-01 02:34:00,
2014-01-31 21:39:00,30.0,21.8,29.52,South,180,2.0,3.0,71,0.00,,,0.00,VWS V14.01,2014-02-01 02:39:00,
2014-01-31 21:43:00,29.0,20.5,29.52,South,180,0.0,1.0,70,0.00,,,0.00,VWS V14.01,2014-02-01 02:43:00,
2014-01-31 21:48:00,29.0,20.5,29.54,South,180,0.0,0.0,70,0.00,,,0.00,VWS V14.01,2014-02-01 02:48:00,
2014-01-31 21:53:00,29.0,20.1,29.54,South,180,0.0,0.0,69,0.00,,,0.00,VWS V14.01,2014-02-01 02:53:00,
2014-01-31 21:58:00,29.0,19.8,29.55,South,180,0.0,0.0,68,0.00,,,0.00,VWS V14.01,2014-02-01 02:58:00,
2014-01-31 22:03:00,29.0,20.1,29.55,South,180,0.0,0.0,69,0.00,,,0.00,VWS V14.01,2014-02-01 03:03:00,
2014-01-31 22:08:00,30.0,20.7,29.53,South,180,0.0,3.0,68,0.00,,,0.00,VWS V14.01,2014-02-01 03:08:00,
2014-01-31 22:13:00,30.0,21.1,29.53,South,180,4.0,4.0,69,0.00,,,0.00,VWS V14.01,2014-02-01 03:13:00,
2014-01-31 22:18:00,30.0,20.7,29.53,SSW,202,2.0,4.0,68,0.00,,,0.00,VWS V14.01,2014-02-01 03:18:00,
2014-01-31 22:23:00,30.0,20.4,29.53,South,180,1.0,2.0,67,0.00,,,0.00,VWS V14.01,2014-02-01 03:23:00,
2014-01-31 22:28:00,31.0,21.3,29.53,SSW,202,0.0,0.0,67,0.00,,,0.00,VWS V14.01,2014-02-01 03:28:00,
2014-01-31 22:33:00,31.0,21.0,29.53,South,180,3.0,5.0,66,0.00,,,0.00,VWS V14.01,2014-02-01 03:33:00,
2014-01-31 22:38:00,31.0,20.6,29.53,SSW,202,3.0,4.0,65,0.00,,,0.00,VWS V14.01,2014-02-01 03:38:00,
2014-01-31 22:43:00,31.0,20.6,29.53,SSW,202,0.0,0.0,65,0.00,,,0.00,VWS V14.01,2014-02-01 03:43:00,
2014-01-31 22:48:00,31.0,20.6,29.53,SSW,202,0.0,0.0,65,0.00,,,0.00,VWS V14.01,2014-02-01 03:48:00,
2014-01-31 22:53:00,31.0,20.6,29.53,SSW,202,0.0,1.0,65,0.00,,,0.00,VWS V14.01,2014-02-01 03:53:00,
2014-01-31 22:58:00,31.0,20.6,29.53,SSW,202,1.0,1.0,65,0.00,,,0.00,VWS V14.01,2014-02-01 03:58:00,
2014-01-31 23:03:00,30.0,20.4,29.53,SSE,157,3.0,4.0,67,0.00,,,0.00,VWS V14.01,2014-02-01 04:03:00,
2014-01-31 23:08:00,30.0,20.0,29.53,SSE,157,0.0,0.0,66,0.00,,,0.00,VWS V14.01,2014-02-01 04:08:00,
2014-01-31 23:13:00,30.0,20.0,29.53,SSE,157,2.0,2.0,66,0.00,,,0.00,VWS V14.01,2014-02-01 04:13:00,
2014-01-31 23:18:00,30.0,20.4,29.54,SSE,157,2.0,3.0,67,0.00,,,0.00,VWS V14.01,2014-02-01 04:18:00,
2014-01-31 23:23:00,30.0,20.0,29.54,South,180,3.0,3.0,66,0.00,,,0.00,VWS V14.01,2014-02-01 04:23:00,
2014-01-31 23:28:00,31.0,20.6,29.53,South,180,3.0,4.0,65,0.00,,,0.00,VWS V14.01,2014-02-01 04:28:00,
2014-01-31 23:33:00,31.0,20.6,29.53,South,180,3.0,4.0,65,0.00,,,0.00,VWS V14.01,2014-02-01 04:33:00,
2014-01-31 23:38:00,31.0,20.6,29.55,South,180,3.0,3.0,65,0.00,,,0.00,VWS V14.01,2014-02-01 04:38:00,
2014-01-31 23:43:00,31.0,20.6,29.55,SSW,202,4.0,5.0,65,0.00,,,0.00,VWS V14.01,2014-02-01 04:43:00,
2014-01-31 23:48:00,31.0,20.6,29.55,SSW,202,3.0,4.0,65,0.00,,,0.00,VWS V14.01,2014-02-01 04:48:00,
2014-01-31 23:53:00,31.0,20.3,29.55,SSW,202,5.0,6.0,64,0.00,,,0.00,VWS V14.01,2014-02-01 04:53:00,
2014-01-31 23:58:00,31.0,19.9,29.55,South,180,3.0,3.0,63,0.00,,,0.00,VWS V14.01,2014-02-01 04:58:00,